period_start,C,m1,H,J0,J1,J2,J3,J4,J5,JA,JB,JC,JD,JJ,JK,JN,#
2015-08-29 00:01:04,0.08,1.08,0.00,25.97,29.70,32.38,14.32,49.85,1012.21,2029.03,3018.01,2915.30,3169.11,600.29,587.89,32.99,0000 0000 0000 0000 000000
2015-08-29 00:06:05,0.08,1.08,0.00,26.00,29.70,32.37,14.36,49.82,1012.19,2029.01,3016.50,2914.10,3167.73,600.10,587.56,33.04,0000 0000 0000 0000 000000
2015-08-29 00:11:07,0.09,1.08,0.00,26.02,29.71,32.37,14.30,49.85,1012.21,2029.01,3014.89,2912.81,3166.22,600.29,587.71,33.09,0000 0000 0000 0000 000000
2015-08-29 00:16:08,0.09,1.09,0.00,26.06,29.72,32.33,14.37,49.84,1012.22,2029.00,3013.28,2911.64,3164.72,600.50,587.85,33.14,0000 0000 0000 0000 000000
2015-08-29 00:21:10,0.08,1.09,0.00,26.09,29.73,32.34,14.29,49.77,1012.22,2029.00,3011.64,2910.38,3163.34,599.83,587.13,33.19,0000 0000 0000 0000 000000
2015-08-29 00:26:11,0.09,1.10,0.00,26.10,29.75,32.34,14.27,49.88,1012.21,2029.00,3009.93,2909.14,3161.80,599.65,586.99,33.24,0000 0000 0000 0000 000000
2015-08-29 00:31:12,0.09,1.10,0.00,26.12,29.76,32.36,14.36,49.98,1012.15,2029.00,3008.32,2907.86,3160.44,600.31,587.60,33.29,0000 0000 0000 0000 000000
2015-08-29 00:36:14,0.09,1.11,0.00,26.15,29.77,32.36,14.28,49.83,1011.98,2028.99,3006.68,2906.59,3158.84,600.16,587.18,33.34,0000 0000 0000 0000 000000
2015-08-29 00:41:15,0.08,1.11,0.00,26.17,29.77,32.37,14.32,49.85,1011.92,2028.99,3005.06,2905.31,3157.33,600.02,586.92,33.39,0000 0000 0000 0000 000000
2015-08-29 00:46:16,0.09,1.12,0.00,26.19,29.79,32.39,14.20,49.81,1012.01,2028.99,3003.39,2904.02,3155.85,600.01,587.02,33.44,0000 0000 0000 0000 000000
2015-08-29 00:51:18,0.09,1.12,0.00,26.21,29.80,32.41,14.31,49.91,1011.87,2028.98,3001.61,2902.77,3154.34,600.12,587.05,33.49,0000 0000 0000 0000 000000
2015-08-29 00:56:19,0.09,1.13,0.00,26.25,29.82,32.42,14.22,49.78,1011.96,2028.98,2999.95,2901.48,3152.85,599.88,586.76,33.54,0000 0000 0000 0000 000000
2015-08-29 01:01:20,0.08,1.13,0.00,26.26,29.83,32.42,14.25,49.89,1012.03,2028.96,2998.18,2900.24,3151.37,600.06,587.01,33.59,0000 0000 0000 0000 000000
2015-08-29 01:06:22,0.09,1.14,0.00,26.28,29.85,32.46,14.27,49.83,1011.83,2028.93,2996.58,2898.96,3149.85,599.93,586.67,33.64,0000 0000 0000 0000 000000
2015-08-29 01:11:23,0.08,1.14,0.00,26.33,29.87,32.43,14.14,49.80,1011.94,2028.79,2994.81,2897.66,3148.42,599.73,586.41,33.69,0000 0000 0000 0000 000000
2015-08-29 01:16:24,0.04,1.14,0.00,26.37,29.88,32.42,14.36,49.92,1011.99,2028.46,2993.18,2896.45,3146.97,600.19,586.78,33.74,0000 0000 0000 0000 000000
2015-08-29 01:21:25,0.06,1.15,0.00,26.41,29.90,32.45,14.26,50.05,1011.90,2028.12,2991.54,2895.17,3145.53,599.82,586.32,33.79,0000 0000 0000 0000 000000
2015-08-29 01:26:27,0.09,1.15,0.00,26.43,29.92,32.45,14.24,50.20,1012.00,2028.05,2989.86,2893.88,3143.97,600.25,586.77,33.84,0000 0000 0000 0000 000000
2015-08-29 01:31:28,0.08,1.15,0.00,26.46,29.94,32.46,14.29,50.16,1012.14,2028.01,2988.40,2892.66,3142.64,600.10,586.66,33.90,0000 0000 0000 0000 000000
2015-08-29 01:36:30,0.08,1.16,0.00,26.48,29.96,32.49,14.29,50.16,1012.07,2028.01,2986.80,2891.52,3141.33,599.97,586.49,33.95,0000 0000 0000 0000 000000
2015-08-29 01:41:31,0.07,1.16,0.00,26.50,29.97,32.49,14.23,50.00,1011.82,2028.00,2985.37,2890.41,3139.97,599.70,586.03,34.00,0000 0000 0000 0000 000000
2015-08-29 01:46:32,0.08,1.17,0.00,26.53,30.00,32.52,14.28,50.14,1011.74,2028.00,2983.80,2889.21,3138.61,599.86,586.04,34.05,0000 0000 0000 0000 000000
2015-08-29 01:51:34,0.07,1.17,0.00,26.58,30.02,32.51,14.30,49.98,1011.75,2027.99,2982.34,2888.11,3137.35,600.01,586.19,34.10,0000 0000 0000 0000 000000
2015-08-29 01:56:35,0.09,1.18,0.00,26.62,30.05,32.51,14.31,50.35,1011.74,2027.99,2980.74,2886.94,3135.92,600.29,586.25,34.15,0000 0000 0000 0000 000000
2015-08-29 02:01:36,0.05,1.18,0.00,26.68,30.07,32.53,14.18,49.83,1011.73,2027.87,2979.29,2885.80,3134.76,599.94,585.85,34.20,0000 0000 0000 0000 000000
2015-08-29 02:06:37,0.06,1.18,0.00,26.72,30.10,32.49,14.22,50.14,1011.73,2027.49,2977.77,2884.62,3133.47,599.90,585.72,34.25,0000 0000 0000 0000 000000
2015-08-29 02:11:39,0.04,1.18,0.00,26.77,30.12,32.50,14.28,50.25,1011.75,2027.12,2976.38,2883.50,3132.18,600.39,586.04,34.30,0000 0000 0000 0000 000000
2015-08-29 02:16:40,0.09,1.19,0.00,26.82,30.15,32.52,14.17,50.24,1011.77,2027.02,2974.69,2882.09,3130.68,599.56,585.22,34.35,0000 0000 0000 0000 000000
2015-08-29 02:21:41,0.09,1.19,0.00,26.87,30.18,32.53,14.30,50.14,1011.75,2027.00,2972.99,2880.87,3129.13,600.04,585.55,34.40,0000 0000 0000 0000 000000
2015-08-29 02:26:42,0.09,1.20,0.00,26.93,30.21,32.57,14.18,50.00,1011.73,2027.00,2971.46,2879.65,3127.74,599.83,585.20,34.45,0000 0000 0000 0000 000000
2015-08-29 02:31:43,0.07,1.20,0.00,26.97,30.24,32.61,14.19,50.24,1011.74,2026.99,2969.91,2878.66,3126.43,599.98,585.31,34.50,0000 0000 0000 0000 000000
2015-08-29 02:36:44,0.06,1.20,0.00,27.01,30.27,32.65,14.22,50.18,1011.74,2026.94,2968.59,2877.61,3125.18,600.09,585.41,34.55,0000 0000 0000 0000 000000
2015-08-29 02:41:46,0.02,1.21,0.00,27.05,30.31,32.67,14.34,50.13,1011.73,2026.51,2967.13,2876.45,3123.79,600.22,585.22,34.60,0000 0000 0000 0000 000000
2015-08-29 02:46:47,0.05,1.21,0.00,27.09,30.34,32.70,14.18,50.06,1011.74,2026.09,2965.70,2875.38,3122.57,599.88,584.99,34.65,0000 0000 0000 0000 000000
2015-08-29 02:51:48,0.06,1.21,0.00,27.11,30.37,32.73,14.19,50.18,1011.75,2026.01,2964.21,2874.27,3121.26,599.92,585.04,34.70,0000 0000 0000 0000 000000
2015-08-29 02:56:49,0.07,1.22,0.00,27.14,30.41,32.80,14.26,50.12,1011.76,2026.00,2962.87,2873.13,3120.02,599.91,584.90,34.75,0000 0000 0000 0000 000000
2015-08-29 03:01:50,0.07,1.22,0.00,27.17,30.44,32.83,14.23,50.00,1011.75,2025.99,2961.57,2872.19,3118.91,599.97,584.86,34.80,0000 0000 0000 0000 000000
2015-08-29 03:06:52,0.07,1.22,0.00,27.20,30.48,32.88,14.22,49.99,1011.75,2025.91,2960.22,2871.15,3117.62,599.65,584.57,34.86,0000 0000 0000 0000 000000
2015-08-29 03:11:53,0.04,1.23,0.00,27.23,30.51,32.90,14.20,50.15,1011.73,2025.63,2958.75,2870.03,3116.37,599.94,584.74,34.91,0000 0000 0000 0000 000000
2015-08-29 03:16:55,0.03,1.23,0.00,27.26,30.55,32.93,14.20,50.30,1011.73,2025.21,2957.36,2869.01,3115.19,599.89,584.56,34.96,0000 0000 0000 0000 000000
2015-08-29 03:21:56,0.05,1.23,0.00,27.29,30.58,32.95,14.23,50.21,1011.74,2025.02,2956.04,2867.98,3113.97,600.08,584.81,35.01,0000 0000 0000 0000 000000
2015-08-29 03:26:57,0.08,1.24,0.00,27.32,30.61,33.01,14.15,50.23,1011.74,2025.00,2954.69,2866.92,3112.78,599.70,584.36,35.06,0000 0000 0000 0000 000000
2015-08-29 03:31:58,0.07,1.24,0.00,27.35,30.65,33.04,14.19,50.23,1011.76,2025.00,2953.43,2865.97,3111.62,600.00,584.54,35.11,0000 0000 0000 0000 000000
2015-08-29 03:37:00,0.07,1.24,0.00,27.38,30.68,33.07,14.18,50.13,1011.76,2024.98,2952.14,2864.92,3110.45,600.01,584.52,35.16,0000 0000 0000 0000 000000
2015-08-29 03:42:07,0.07,1.25,0.00,27.41,30.71,33.10,14.11,49.97,1011.75,2024.92,2950.68,2863.94,3109.23,599.92,584.38,35.21,0000 0000 0000 0000 000000
2015-08-29 03:47:09,0.02,1.25,0.00,27.43,30.75,33.13,14.18,50.07,1011.75,2024.32,2949.27,2862.76,3107.87,600.19,584.61,35.26,0000 0000 0000 0000 000000
2015-08-29 03:52:10,0.07,1.25,0.00,27.47,30.78,33.15,14.18,50.04,1011.74,2024.01,2947.82,2861.66,3106.65,599.96,584.25,35.31,0000 0000 0000 0000 000000
2015-08-29 03:57:11,0.07,1.25,0.00,27.49,30.81,33.22,14.13,49.91,1011.75,2024.00,2946.39,2860.59,3105.40,599.92,584.26,35.36,0000 0000 0000 0000 000000
2015-08-29 04:02:13,0.08,1.26,0.00,27.53,30.84,33.23,14.20,50.13,1011.74,2024.00,2944.77,2859.52,3104.04,600.09,584.37,35.41,0000 0000 0000 0000 000000
2015-08-29 04:07:14,0.08,1.26,0.00,27.56,30.88,33.24,14.17,50.24,1011.74,2023.99,2943.44,2858.36,3102.69,600.07,584.26,35.46,0000 0000 0000 0000 000000
2015-08-29 04:12:16,0.07,1.27,0.00,27.58,30.91,33.29,14.12,50.03,1011.74,2023.95,2941.90,2857.24,3101.41,599.70,583.77,35.51,0000 0000 0000 0000 000000
2015-08-29 04:17:17,0.06,1.27,0.00,27.61,30.94,33.32,14.18,50.15,1011.74,2023.79,2940.58,2856.15,3100.07,599.80,584.00,35.56,0000 0000 0000 0000 000000
2015-08-29 04:22:18,0.04,1.27,0.00,27.64,30.97,33.34,14.16,50.11,1011.74,2023.31,2939.06,2854.97,3098.71,599.81,583.84,35.61,0000 0000 0000 0000 000000
2015-08-29 04:27:20,0.05,1.28,0.00,27.66,31.01,33.37,14.13,50.08,1011.75,2023.06,2937.69,2853.87,3097.46,599.81,583.86,35.66,0000 0000 0000 0000 000000
2015-08-29 04:32:21,0.08,1.28,0.00,27.69,31.04,33.42,14.25,50.30,1011.79,2023.00,2936.22,2852.75,3096.12,600.52,584.58,35.71,0000 0000 0000 0000 000000
2015-08-29 04:37:22,0.08,1.28,0.00,27.72,31.07,33.44,14.25,50.15,1011.83,2023.00,2934.85,2851.71,3094.83,600.39,584.24,35.77,0000 0000 0000 0000 000000
2015-08-29 04:42:24,0.08,1.29,0.00,27.75,31.10,33.48,14.18,50.08,1011.84,2022.98,2933.49,2850.61,3093.59,599.88,583.65,35.82,0000 0000 0000 0000 000000
2015-08-29 04:47:25,0.07,1.29,0.00,27.77,31.13,33.51,14.18,50.14,1011.79,2022.93,2932.12,2849.56,3092.34,599.97,583.74,35.87,0000 0000 0000 0000 000000
2015-08-29 04:52:27,0.02,1.29,0.00,27.80,31.17,33.55,14.21,50.09,1011.75,2022.46,2930.63,2848.45,3090.97,599.81,583.76,35.92,0000 0000 0000 0000 000000
2015-08-29 04:57:28,0.05,1.30,0.00,27.83,31.20,33.56,14.13,50.13,1011.77,2022.05,2929.15,2847.20,3089.64,600.29,583.78,35.97,0000 0000 0000 0000 000000
2015-08-29 05:02:29,0.09,1.30,0.00,27.86,31.23,33.60,14.15,50.22,1011.74,2022.01,2927.65,2845.98,3088.32,599.88,583.49,36.02,0000 0000 0000 0000 000000
2015-08-29 05:07:30,0.07,1.30,0.00,27.89,31.26,33.62,14.24,50.25,1011.76,2022.00,2926.28,2844.92,3086.99,600.30,583.64,36.07,0000 0000 0000 0000 000000
2015-08-29 05:12:32,0.10,1.31,0.00,27.92,31.30,33.67,14.08,49.98,1011.77,2021.99,2924.79,2843.74,3085.63,599.70,583.26,36.12,0000 0000 0000 0000 000000
2015-08-29 05:17:33,0.06,1.31,0.00,27.96,31.33,33.68,14.12,49.99,1011.76,2021.87,2923.50,2842.58,3084.34,599.98,583.39,36.17,0000 0000 0000 0000 000000
2015-08-29 05:22:34,0.03,1.31,0.00,27.98,31.36,33.71,14.17,49.90,1011.75,2021.33,2921.95,2841.46,3082.94,599.93,583.32,36.22,0000 0000 0000 0000 000000
2015-08-29 05:27:35,0.06,1.32,0.00,28.01,31.39,33.73,14.07,49.95,1011.79,2021.03,2920.60,2840.39,3081.62,599.60,582.94,36.27,0000 0000 0000 0000 000000
2015-08-29 05:32:37,0.09,1.32,0.00,28.04,31.42,33.77,14.12,50.26,1012.15,2021.01,2918.77,2839.20,3080.31,599.72,583.17,36.32,0000 0000 0000 0000 000000
2015-08-29 05:37:38,0.07,1.33,0.00,28.06,31.45,33.81,14.15,50.08,1012.18,2021.00,2917.32,2838.06,3079.11,600.06,583.56,36.37,0000 0000 0000 0000 000000
2015-08-29 05:42:39,0.06,1.33,0.00,28.07,31.47,33.82,14.18,49.96,1012.04,2021.00,2916.35,2837.22,3078.16,600.18,583.54,36.42,0000 0000 0000 0000 000000
2015-08-29 05:47:40,0.08,1.33,0.00,28.08,31.50,33.85,14.21,49.98,1011.98,2021.00,2914.75,2836.32,3077.07,600.09,583.34,36.47,0000 0000 0000 0000 000000
2015-08-29 05:52:42,0.07,1.34,0.00,28.10,31.52,33.90,14.11,49.92,1012.01,2020.99,2913.50,2835.38,3076.00,599.94,583.25,36.52,0000 0000 0000 0000 000000
2015-08-29 05:57:43,0.07,1.34,0.00,28.10,31.54,33.93,14.23,50.02,1011.92,2020.95,2912.20,2834.40,3074.87,600.31,583.54,36.57,0000 0000 0000 0000 000000
2015-08-29 06:02:44,0.04,1.34,0.00,28.12,31.55,33.96,14.19,50.12,1011.75,2020.81,2911.19,2833.51,3073.93,600.32,583.39,36.63,0000 0000 0000 0000 000000
2015-08-29 06:07:45,0.03,1.34,0.00,28.14,31.57,33.98,14.16,50.02,1011.75,2020.64,2910.13,2832.88,3073.07,600.05,583.03,36.68,0000 0000 0000 0000 000000
2015-08-29 06:12:47,0.03,1.35,0.00,28.16,31.59,34.02,14.21,49.90,1011.78,2020.38,2909.15,2832.05,3072.24,600.25,583.19,36.73,0000 0000 0000 0000 000000
2015-08-29 06:17:48,0.04,1.35,0.00,28.17,31.61,34.05,14.19,49.86,1011.83,2020.06,2908.14,2831.19,3071.42,600.12,583.19,36.78,0000 0000 0000 0000 000000
2015-08-29 06:22:49,0.06,1.35,0.00,28.20,31.63,34.06,14.12,49.76,1011.86,2020.01,2907.04,2830.51,3070.58,599.84,582.91,36.83,0000 0000 0000 0000 000000
2015-08-29 06:27:51,0.05,1.35,0.00,28.21,31.65,34.08,14.17,50.05,1011.86,2020.01,2905.89,2829.72,3069.69,600.19,583.15,36.88,0000 0000 0000 0000 000000
2015-08-29 06:32:52,0.06,1.36,0.00,28.22,31.67,34.10,14.28,50.04,1011.81,2020.00,2904.82,2828.88,3068.66,600.24,583.05,36.93,0000 0000 0000 0000 000000
2015-08-29 06:37:53,0.05,1.36,0.00,28.25,31.70,34.13,14.16,49.90,1011.79,2020.00,2903.96,2828.03,3067.69,600.18,583.02,36.98,0000 0000 0000 0000 000000
2015-08-29 06:42:54,0.06,1.36,0.00,28.25,31.71,34.12,14.15,49.80,1011.76,2019.97,2902.89,2827.14,3066.75,599.86,582.71,37.03,0000 0000 0000 0000 000000
2015-08-29 06:47:55,0.05,1.36,0.00,28.27,31.73,34.16,14.18,49.88,1011.76,2019.88,2901.78,2826.38,3065.81,600.26,583.06,37.08,0000 0000 0000 0000 000000
2015-08-29 06:52:57,0.01,1.37,0.00,28.27,31.76,34.19,14.16,49.98,1011.76,2019.52,2900.69,2825.59,3064.84,600.05,582.85,37.13,0000 0000 0000 0000 000000
2015-08-29 06:57:58,0.04,1.37,0.00,28.29,31.77,34.23,14.13,49.76,1011.76,2019.15,2899.48,2824.70,3063.86,599.71,582.43,37.18,0000 0000 0000 0000 000000
2015-08-29 07:03:00,0.05,1.37,0.00,28.30,31.80,34.25,14.25,50.17,1011.76,2019.05,2898.22,2823.89,3062.84,600.52,583.27,37.23,0000 0000 0000 0000 000000
2015-08-29 07:08:01,0.06,1.37,0.00,28.31,31.81,34.26,14.23,50.10,1011.79,2019.01,2897.05,2822.98,3061.83,600.45,583.20,37.28,0000 0000 0000 0000 000000
2015-08-29 07:13:03,0.07,1.38,0.00,28.32,31.83,34.26,14.16,49.93,1011.89,2019.00,2895.75,2822.05,3060.74,599.93,582.61,37.33,0000 0000 0000 0000 000000
2015-08-29 07:18:04,0.07,1.38,0.00,28.33,31.85,34.31,14.18,49.95,1011.91,2019.00,2894.43,2821.13,3059.72,599.78,582.65,37.38,0000 0000 0000 0000 000000
2015-08-29 07:23:05,0.05,1.38,0.00,28.35,31.87,34.31,14.12,49.92,1012.05,2019.00,2893.47,2820.39,3058.81,599.85,582.74,37.43,0000 0000 0000 0000 000000
2015-08-29 07:28:07,0.05,1.39,0.00,28.37,31.89,34.34,14.19,49.97,1012.19,2018.99,2892.43,2819.70,3057.95,600.11,583.00,37.48,0000 0000 0000 0000 000000
2015-08-29 07:33:08,0.04,1.39,0.00,28.38,31.91,34.35,14.10,49.81,1012.20,2018.97,2891.45,2818.99,3057.09,600.28,583.19,37.53,0000 0000 0000 0000 000000
2015-08-29 07:38:10,0.04,1.39,0.00,28.40,31.92,34.37,14.13,49.84,1012.22,2018.85,2890.46,2818.14,3056.20,599.81,582.65,37.58,0000 0000 0000 0000 000000
2015-08-29 07:43:11,0.03,1.39,0.00,28.40,31.94,34.42,14.17,49.92,1012.22,2018.63,2889.46,2817.43,3055.44,600.08,582.98,37.64,0000 0000 0000 0000 000000
2015-08-29 07:48:12,0.03,1.39,0.00,28.41,31.95,34.44,14.21,50.04,1012.22,2018.24,2888.31,2816.70,3054.42,600.10,582.87,37.69,0000 0000 0000 0000 000000
2015-08-29 07:53:13,0.04,1.40,0.00,28.42,31.97,34.47,14.12,50.06,1012.22,2018.05,2887.17,2815.96,3053.48,600.20,582.95,37.74,0000 0000 0000 0000 000000
2015-08-29 07:58:14,0.05,1.40,0.00,28.43,31.99,34.46,14.14,49.86,1012.21,2018.00,2886.08,2815.14,3052.59,599.74,582.51,37.79,0000 0000 0000 0000 000000
2015-08-29 08:03:16,0.04,1.40,0.00,28.45,32.00,34.48,14.25,50.08,1012.22,2018.01,2885.09,2814.61,3051.94,600.44,583.16,37.84,0000 0000 0000 0000 000000
2015-08-29 08:08:17,0.05,1.41,0.00,28.49,32.02,34.45,14.13,49.73,1012.22,2018.00,2884.06,2813.91,3051.07,599.83,582.55,37.89,0000 0000 0000 0000 000000
2015-08-29 08:13:18,0.06,1.41,0.00,28.52,32.03,34.45,14.25,49.99,1012.22,2018.00,2882.89,2813.07,3050.12,600.40,582.81,37.94,0000 0000 0000 0000 000000
2015-08-29 08:18:19,0.06,1.41,0.00,28.55,32.05,34.44,14.05,49.83,1012.22,2018.00,2881.89,2812.32,3049.33,599.58,582.09,37.99,0000 0000 0000 0000 000000
2015-08-29 08:23:20,0.05,1.41,0.00,28.58,32.07,34.44,14.06,49.77,1012.22,2018.00,2880.91,2811.68,3048.37,599.72,582.18,38.04,0000 0000 0000 0000 000000
2015-08-29 08:28:22,0.05,1.42,0.00,28.63,32.08,34.46,14.16,50.00,1012.22,2017.99,2879.91,2810.87,3047.56,600.01,582.46,38.09,0000 0000 0000 0000 000000
2015-08-29 08:33:24,0.04,1.42,0.00,28.66,32.10,34.48,14.17,49.94,1012.23,2017.95,2879.06,2810.06,3046.80,600.13,582.54,38.14,0000 0000 0000 0000 000000
2015-08-29 08:38:25,-0.01,1.42,0.00,28.69,32.12,34.50,14.16,49.81,1012.24,2017.61,2878.93,2809.66,3046.05,599.96,582.26,38.19,0000 0000 0000 0000 000000
2015-08-29 08:43:27,0.01,1.42,0.00,28.71,32.15,34.55,14.23,49.77,1012.24,2017.22,2878.18,2809.02,3045.59,600.03,582.35,38.24,0000 0000 0000 0000 000000
2015-08-29 08:48:28,0.01,1.42,0.00,28.72,32.17,34.58,14.18,49.76,1012.22,2017.05,2877.76,2808.70,3044.99,600.17,582.37,38.29,0000 0000 0000 0000 000000
2015-08-29 08:53:29,0.04,1.42,0.00,28.72,32.19,34.61,14.13,49.67,1012.26,2017.00,2876.96,2808.03,3044.26,600.05,582.29,38.34,0000 0000 0000 0000 000000
2015-08-29 08:58:31,0.02,1.42,0.00,28.70,32.21,34.62,14.18,49.78,1012.59,2017.00,2876.12,2807.88,3043.98,600.30,582.75,38.39,0000 0000 0000 0000 000000
2015-08-29 09:03:32,0.05,1.43,0.00,28.70,32.22,34.67,14.17,49.69,1012.71,2017.00,2875.71,2807.14,3043.27,600.04,582.54,38.44,0000 0000 0000 0000 000000
2015-08-29 09:08:34,0.01,1.43,0.00,28.70,32.24,34.69,14.18,49.92,1012.71,2017.00,2875.00,2806.94,3042.93,599.86,582.51,38.50,0000 0000 0000 0000 000000
2015-08-29 09:13:35,0.06,1.43,0.00,28.70,32.25,34.73,14.27,49.88,1012.73,2016.99,2874.11,2806.19,3042.19,600.53,583.06,38.55,0000 0000 0000 0000 000000
2015-08-29 09:18:37,0.03,1.43,0.00,28.71,32.27,34.78,14.18,49.83,1012.72,2016.99,2873.13,2805.86,3041.71,599.95,582.44,38.60,0000 0000 0000 0000 000000
2015-08-29 09:23:38,0.04,1.43,0.00,28.73,32.28,34.75,14.18,49.70,1012.72,2016.97,2872.59,2805.10,3041.03,600.05,582.37,38.65,0000 0000 0000 0000 000000
2015-08-29 09:28:40,0.01,1.44,0.00,28.76,32.30,34.76,14.13,49.73,1012.78,2016.95,2872.01,2804.95,3040.65,600.28,582.79,38.70,0000 0000 0000 0000 000000
2015-08-29 09:33:41,0.03,1.44,0.00,28.79,32.30,34.76,14.21,49.67,1012.98,2016.87,2871.64,2804.30,3040.03,599.99,582.43,38.75,0000 0000 0000 0000 000000
2015-08-29 09:38:42,-0.04,1.44,0.00,28.81,32.32,34.77,14.19,49.82,1013.20,2016.45,2871.04,2804.00,3039.92,599.86,582.53,38.80,0000 0000 0000 0000 000000
2015-08-29 09:43:44,0.00,1.44,0.00,28.85,32.33,34.79,14.14,49.63,1013.21,2016.22,2870.99,2803.94,3039.31,600.04,582.46,38.85,0000 0000 0000 0000 000000
2015-08-29 09:48:45,0.03,1.44,0.00,28.87,32.35,34.78,14.14,49.51,1013.22,2016.08,2870.41,2803.41,3039.01,599.96,582.54,38.90,0000 0000 0000 0000 000000
2015-08-29 09:53:46,0.01,1.44,0.00,28.90,32.37,34.79,14.13,49.71,1013.22,2016.03,2870.01,2803.01,3038.67,600.01,582.45,38.95,0000 0000 0000 0000 000000
2015-08-29 09:58:48,0.02,1.44,0.00,28.91,32.38,34.78,14.14,49.65,1013.24,2016.00,2869.53,2802.92,3038.06,600.16,582.63,39.00,0000 0000 0000 0000 000000
2015-08-29 10:03:49,0.03,1.44,0.00,28.92,32.40,34.77,14.12,49.80,1013.31,2016.00,2869.00,2802.16,3037.91,600.04,582.47,39.05,0000 0000 0000 0000 000000
2015-08-29 10:08:51,0.01,1.44,0.00,28.92,32.41,34.81,14.15,49.77,1013.53,2016.00,2868.85,2802.00,3037.25,599.73,582.33,39.10,0000 0000 0000 0000 000000
2015-08-29 10:13:52,0.01,1.44,0.00,28.92,32.42,34.82,14.19,49.54,1013.49,2016.00,2868.58,2801.99,3037.00,599.86,582.37,39.15,0000 0000 0000 0000 000000
2015-08-29 10:18:53,0.03,1.44,0.00,28.92,32.45,34.87,14.14,49.67,1013.59,2015.99,2868.07,2801.52,3036.91,599.87,582.52,39.20,0000 0000 0000 0000 000000
2015-08-29 10:23:55,0.02,1.44,0.00,28.92,32.46,34.92,14.08,49.72,1013.62,2015.98,2867.97,2801.02,3036.28,599.83,582.45,39.25,0000 0000 0000 0000 000000
2015-08-29 10:28:56,0.01,1.45,0.00,28.92,32.47,34.96,14.15,49.73,1013.68,2015.96,2867.39,2800.99,3036.00,599.83,582.50,39.30,0000 0000 0000 0000 000000
2015-08-29 10:33:58,0.01,1.45,0.00,28.91,32.49,34.98,14.20,49.64,1013.69,2015.90,2867.01,2800.76,3035.95,600.17,582.87,39.35,0000 0000 0000 0000 000000
2015-08-29 10:38:59,0.01,1.45,0.00,28.90,32.50,35.03,14.25,49.85,1013.69,2015.69,2866.86,2800.14,3035.29,600.14,582.82,39.41,0000 0000 0000 0000 000000
2015-08-29 10:44:01,-0.02,1.45,0.00,28.90,32.50,35.04,14.17,49.75,1013.70,2015.33,2866.17,2800.00,3035.00,600.01,582.73,39.46,0000 0000 0000 0000 000000
2015-08-29 10:49:02,-0.01,1.45,0.00,28.90,32.52,35.08,14.11,49.74,1013.69,2015.12,2866.00,2799.97,3034.87,599.76,582.41,39.51,0000 0000 0000 0000 000000
2015-08-29 10:54:03,0.02,1.45,0.00,28.90,32.52,35.08,14.10,49.54,1013.69,2015.05,2865.95,2799.59,3034.31,599.85,582.52,39.56,0000 0000 0000 0000 000000
2015-08-29 10:59:05,0.02,1.45,0.00,28.88,32.53,35.13,14.16,49.82,1013.70,2015.01,2865.40,2799.07,3034.00,599.90,582.54,39.61,0000 0000 0000 0000 000000
2015-08-29 11:04:06,0.00,1.45,0.00,28.87,32.54,35.13,14.19,49.59,1013.70,2015.00,2865.01,2799.00,3033.99,600.24,583.00,39.66,0000 0000 0000 0000 000000
2015-08-29 11:09:08,0.00,1.45,0.00,28.87,32.55,35.16,14.17,49.85,1013.70,2015.00,2864.99,2798.97,3033.74,600.20,582.84,39.71,0000 0000 0000 0000 000000
2015-08-29 11:14:09,0.03,1.45,0.00,28.85,32.55,35.18,14.12,49.67,1013.71,2014.99,2864.57,2798.63,3033.16,599.53,582.26,39.76,0000 0000 0000 0000 000000
2015-08-29 11:19:10,0.01,1.45,0.00,28.85,32.55,35.22,14.18,49.76,1013.70,2014.98,2864.03,2798.07,3033.00,600.29,583.18,39.81,0000 0000 0000 0000 000000
2015-08-29 11:24:11,0.00,1.45,0.00,28.84,32.55,35.21,14.19,49.40,1013.72,2014.98,2864.00,2798.01,3032.98,600.35,583.19,39.86,0000 0000 0000 0000 000000
2015-08-29 11:29:12,0.00,1.45,0.00,28.82,32.55,35.22,14.16,49.85,1013.74,2014.97,2863.96,2798.00,3032.92,599.62,582.66,39.91,0000 0000 0000 0000 000000
2015-08-29 11:34:14,0.02,1.45,0.00,28.82,32.55,35.23,14.23,49.67,1013.77,2014.97,2863.56,2798.00,3032.47,600.29,582.89,39.96,0000 0000 0000 0000 000000
2015-08-29 11:39:15,0.01,1.45,0.00,28.80,32.55,35.20,14.15,49.63,1013.86,2014.96,2863.09,2797.96,3032.06,600.14,583.25,40.01,0000 0000 0000 0000 000000
2015-08-29 11:44:16,0.01,1.45,0.00,28.80,32.55,35.22,14.26,49.68,1013.88,2014.98,2863.00,2797.62,3032.00,600.28,583.29,40.06,0000 0000 0000 0000 000000
2015-08-29 11:49:17,0.02,1.45,0.00,28.78,32.55,35.21,14.25,49.81,1013.76,2014.96,2862.80,2797.14,3032.00,599.77,582.76,40.11,0000 0000 0000 0000 000000
2015-08-29 11:54:19,0.01,1.46,0.00,28.77,32.55,35.24,14.23,49.85,1013.71,2014.96,2862.09,2797.00,3031.90,600.06,583.09,40.16,0000 0000 0000 0000 000000
2015-08-29 11:59:20,0.01,1.46,0.00,28.76,32.55,35.22,14.22,49.82,1013.71,2014.96,2862.00,2797.00,3031.40,599.94,582.96,40.21,0000 0000 0000 0000 000000
2015-08-29 12:04:21,0.01,1.46,0.00,28.74,32.55,35.21,14.16,49.81,1013.71,2014.98,2861.99,2796.99,3031.11,599.75,582.90,40.26,0000 0000 0000 0000 000000
2015-08-29 12:09:23,0.02,1.46,0.00,28.72,32.55,35.23,14.12,49.67,1013.71,2014.98,2861.57,2796.90,3031.01,599.84,582.83,40.31,0000 0000 0000 0000 000000
2015-08-29 12:14:24,0.02,1.46,0.00,28.72,32.53,35.23,14.24,49.73,1013.70,2014.98,2861.04,2796.49,3030.99,600.12,583.30,40.37,0000 0000 0000 0000 000000
2015-08-29 12:19:26,0.01,1.46,0.00,28.70,32.52,35.21,14.23,50.01,1013.74,2014.98,2860.99,2796.05,3030.87,600.07,583.18,40.42,0000 0000 0000 0000 000000
2015-08-29 12:24:27,0.02,1.46,0.00,28.69,32.52,35.20,14.24,49.84,1013.92,2014.99,2860.60,2796.01,3030.29,600.13,583.38,40.47,0000 0000 0000 0000 000000
2015-08-29 12:29:28,0.01,1.46,0.00,28.67,32.52,35.22,14.19,49.83,1013.90,2014.99,2860.02,2795.99,3030.00,599.91,583.31,40.52,0000 0000 0000 0000 000000
2015-08-29 12:34:29,0.00,1.46,0.00,28.67,32.51,35.19,14.19,49.63,1013.89,2014.99,2860.00,2795.92,3029.99,600.08,583.25,40.57,0000 0000 0000 0000 000000
2015-08-29 12:39:31,0.01,1.46,0.00,28.66,32.50,35.19,14.21,49.64,1013.74,2014.99,2859.91,2795.48,3029.93,599.89,582.99,40.62,0000 0000 0000 0000 000000
2015-08-29 12:44:32,0.03,1.46,0.00,28.65,32.50,35.18,14.20,49.73,1013.72,2014.99,2859.38,2795.14,3029.56,599.79,583.01,40.67,0000 0000 0000 0000 000000
2015-08-29 12:49:33,0.01,1.46,0.00,28.65,32.50,35.16,14.19,49.68,1013.71,2014.99,2859.04,2795.02,3029.11,599.74,583.11,40.72,0000 0000 0000 0000 000000
2015-08-29 12:54:35,0.00,1.46,0.00,28.63,32.49,35.18,14.14,49.60,1013.73,2014.99,2858.99,2795.00,3029.00,600.12,583.29,40.77,0000 0000 0000 0000 000000